Regional Weather Roundup
Issued by NWS Boston, MA

Home | Current Version | Previous Version | Text Only | Print | Product List | Glossary On
Versions: 1 2 3 4 5 6 7 8 9 10 11 12 13 14 15 16 17 18 19 20 21 22 23 24 25 26 27 28 29 30 31 32 33 34 35 36 37 38 39 40 41 42 43 44 45 46 47 48 49 50
000
ASUS41 KBOX 031910
RWRBOX

REGIONAL WEATHER ROUNDUP
NATIONAL WEATHER SERVICE TAUNTON MA
200 PM EST SAT DEC 03 2016

NOTE:  "FAIR" INDICATES FEW OR NO CLOUDS BELOW 12,000 FEET WITH NO
SIGNIFICANT WEATHER AND/OR OBSTRUCTIONS TO VISIBILITY.

MAZALL-032000-
EASTERN MASSACHUSETTS

CITY           SKY/WX    TMP DP  RH WIND       PRES   REMARKS
BOSTON         CLOUDY    44  25  47 NW21G31   29.88S
BEVERLY        CLOUDY    44  26  49 NW21G28   29.86R
LAWRENCE       PTSUNNY   44  26  49 NW13G33   29.88S
BEDFORD        PTSUNNY   43  22  43 NW18G31   29.88R
BLUE HILL        N/A     42  24  49 NW20G37   29.84S
NORWOOD        PTSUNNY   44  24  45 NW17G28   29.88S
MARSHFIELD     CLOUDY    45  27  49 NW12G23   29.87R
PLYMOUTH       CLOUDY    44  25  47 NW17G26   29.87R
TAUNTON        PTSUNNY   45  24  43 NW14G24   29.88R
NEW BEDFORD    CLOUDY    46  26  45 W15G26    29.87R
$$

MAZALL-032000-
CAPE COD AND THE ISLANDS

CITY           SKY/WX    TMP DP  RH WIND       PRES   REMARKS
FALMOUTH       CLOUDY    45  25  45 MISG      29.85S
HYANNIS        PTSUNNY   45  27  49 NW14G22   29.84R
CHATHAM        MOSUNNY   46  28  49 NW17G30   29.86R
PROVINCETOWN   CLOUDY    44  29  55 NW22G31   29.86R
NANTUCKET      MOSUNNY   47  27  45 NW17      29.85S
MARTHAS VNYRD  MOSUNNY   46  26  45 NW14G26   29.87R
$$

MAZALL-032000-
CENTRAL AND WESTERN MASSACHUSETTS

CITY           SKY/WX    TMP DP  RH WIND       PRES   REMARKS
WORCESTER      CLOUDY    37  23  56 NW17      29.89R WCI  27
FITCHBURG      PTSUNNY   42  23  46 NW13G21   29.91R
ORANGE         CLOUDY    40  27  59 W12G22    29.92R
SPRINGFIELD    PTSUNNY   42  26  51 W12       29.93S
WESTFIELD      PTSUNNY   42  25  50 NW15      29.95S
NORTH ADAMS    CLOUDY    39  23  52 W14G25    29.94S WCI  31
PITTSFIELD     CLOUDY    37  22  54 NW10G18   29.93S WCI  30
$$

RIZALL-032000-
RHODE ISLAND

CITY           SKY/WX    TMP DP  RH WIND       PRES   REMARKS
PROVIDENCE     PTSUNNY   44  24  45 NW16G25   29.91R
NEWPORT        PTSUNNY   46  29  51 NW18G28   29.89R
BLOCK ISLAND   SUNNY     45  28  51 NW18G26   29.91S
SMITHFIELD     CLOUDY    41  25  53 NW13G22   29.90R
WESTERLY       MOSUNNY   46  23  40 NW13G26   29.93R
$$

CTZALL-032000-
CONNECTICUT

CITY           SKY/WX    TMP DP  RH WIND       PRES   REMARKS
BRADLEY INTL   PTSUNNY   42  22  44 NW20G29   29.96S
HARTFORD       PTSUNNY   44  24  45 NW18G28   29.98R
BRIDGEPORT     CLOUDY    47  25  42 NW13G21   29.98S
DANBURY        CLOUDY    43  25  49 NW9       29.99S
GROTON         MOSUNNY   47  26  44 NW20G26   29.93R
NEW HAVEN      PTSUNNY   44  27  51 NW10G20   29.98
CHESTER        PTSUNNY   43  25  49 NW16G31   29.95S
MERIDEN        PTSUNNY   45  25  45 N16G24    29.98R
WILLIMANTIC    CLOUDY    44  25  47 NW9G20    29.95S
OXFORD         PTSUNNY   41  25  52 NW12G23   29.98S
$$

MEZ002-015-021-024-NHZ003-005-008-011-012-014-VTZ005-008-032000-
NORTHERN NEW ENGLAND

CITY           SKY/WX    TMP DP  RH WIND       PRES   REMARKS
PORTLAND ME    MOSUNNY   42  23  46 NW15G22   29.83R
BANGOR ME      CLOUDY    36  26  67 NW13      29.80R WCI  27
CONCORD NH     CLOUDY    42  24  49 NW16G25   29.88S
MANCHESTER NH  PTSUNNY   42  24  49 NW15      29.87
NASHUA NH      PTSUNNY   43  25  49 NW20G30   29.89R
PORTSMOUTH NH  PTSUNNY   44  24  45 W16G26    29.84R
JAFFREY NH     CLOUDY    38  24  57 W9        29.89S WCI  31
KEENE NH       PTSUNNY   40  25  55 NW13      29.91F
BURLINGTON VT  FLURRIES  37  28  70 NW15G23   29.97S WCI  28
MT. WASHINGTON SNOWSHWR  12  12 100 NW59G75     N/A  VSB 0   WCI -15
$$

NYZ052-076-032000-
EASTERN NEW YORK

CITY           SKY/WX    TMP DP  RH WIND       PRES   REMARKS
ALBANY         PTSUNNY   40  24  53 NW20G28   30.01S WCI  30
NEW YORK CITY  PTSUNNY   49  27  42 NW20      30.02F
$$

ANZALL-032000-
MARINE OBSERVATIONS

STATION/POSITION TIME  TEMP    WIND        PRES    VSBY  WAVE
                       AIR SEA DIR/SP/G                  HT/PER
                 (UTC) (F)     (DEG/KT/KT) (MB)    (MI)  (FT/S)
BOSTON BUOY      1850   45 51  310/ 23/ 27 1009.4R         4/ 5
BUZZARDS BAY     1800   44     320/ 21/ 23 1011.9F
NANTUCKET SOUND  NOT AVBL
MASS BAY-STELLWA 1804   44 50  310/ 19/ 25 1010.0R  1 7/8
ISLE OF SHOALS   1800   43     300/ 27/ 29 1009.4F
S OF BLOCK IS    1855      56                N/A           5/ 6
$$

......................KEY.........................
  SKY/WX - SKY CONDITION/PRESENT WEATHER
  TMP    - TEMPERATURE IN FAHRENHEIT
  DWPT   - DEWPOINT IN FAHRENHEIT
  RH     - RELATIVE HUMIDITY IN PERCENT
  WIND   - DIRECTION AND SPEED IN MPH
  PRES   - MEAN SEA LEVEL PRESSURE IN INCHES OF HG
  WCI    - WIND CHILL INDEX
  VSB    - VISIBILITY IN MILES
  HX     - HEAT INDEX
  TC     - TEMPERATURE IN CELSIUS
  VRB    - VARIABLE WIND DIRECTION
  N/A    - NOT AVAILABLE



USA.gov is the U.S. government's official web portal to all federal, state and local government web resources and services.